Regional Weather Roundup
Issued by NWS

Home | Current Version | Previous Version | Text Only | Print | Product List | Glossary On
Versions: 1 2 3 4 5 6 7 8 9 10 11 12 13 14 15 16 17 18 19 20 21 22 23 24 25 26 27 28 29 30 31 32 33 34 35 36 37 38 39 40 41 42 43 44 45 46 47 48 49 50
000
ASUS43 KFSD 230302
RWRSD

WEATHER ROUNDUP FOR SOUTH DAKOTA
NATIONAL WEATHER SERVICE SIOUX FALLS SD
900 PM CST THU FEB 22 2018

NOTE: "FAIR" INDICATES FEW OR NO CLOUDS BELOW 12,000 FEET WITH NO
SIGNIFICANT WEATHER AND/OR OBSTRUCTIONS TO VISIBILITY.


SDZ001>005-009-010-012>017-230400-
NORTHWEST AND NORTH CENTRAL SOUTH DAKOTA

CITY           SKY/WX    TMP DP  RH WIND       PRES   REMARKS
BUFFALO          N/A      4  -4  69 NW5       30.06S WCI  -5
FAITH            N/A      6   4  91 NW7       30.13R WCI  -6
MOBRIDGE       LGT SNOW  20  17  88 NW5       30.14F FOG     WCI  13
$$

SDZ012>016-024>037-041>051-057-063-072>074-230400-
SOUTHWEST AND SOUTH CENTRAL SOUTH DAKOTA

CITY           SKY/WX    TMP DP  RH WIND       PRES   REMARKS
RAPID CTY ARPT CLEAR      4  -2  76 NW9       30.09R WCI -10
PIERRE         NOT AVBL
CUSTER         PTCLDY    14   6  70 W3        29.94R
ELLSWORTH AFB  PTCLDY     5   1  82 NW13      30.07S WCI -12
PHILIP         CLOUDY     8   5  87 NW12      30.14R WCI  -7
PINE RIDGE     CLOUDY    12  11  95 CALM      30.07R
SPEARFISH        N/A      9   1  72 W7        30.07R WCI  -3
WINNER         FLURRIES  23  19  85 CALM      30.12S
$$

SDZ004>011-016>023-039-040-230400-
NORTHEAST SOUTH DAKOTA

CITY           SKY/WX    TMP DP  RH WIND       PRES   REMARKS
ABERDEEN       LGT SNOW  24  22  91 E10       30.20F FOG     WCI  14
WATERTOWN      LGT SNOW  21  19  92 E7        30.16F FOG     WCI  12
BROOKINGS      LGT SNOW  22  20  92 E9        30.15F VSB 3/4 WCI  12
SISSETON         N/A     22  21  96 CALM      30.22F
$$

SDZ017-020-022-023-036>040-048>070-230400-
SOUTHEAST SOUTH DAKOTA

CITY           SKY/WX    TMP DP  RH WIND       PRES   REMARKS
SIOUX FALLS    SNOW      25  23  92 CALM      30.15F VSB 1/2
HURON          LGT SNOW  23  22  96 SE5       30.17F FOG     WCI  17
CHAMBERLAIN    LGT SNOW  21  21  99 CALM      30.15S
MITCHELL       LGT SNOW  22  20  92 CALM      30.18F FOG
YANKTON        LGT SNOW  24  21  88 CALM      30.17S FOG
$$

ABBREVIATIONS USED IN REMARKS
   TC - TEMPERATURE IN CELSIUS
  WCI - WIND CHILL INDEX
   HX - HEAT INDEX
  VSB - VISIBILITY




USA.gov is the U.S. government's official web portal to all federal, state and local government web resources and services.